• In Hungary
  • List of Countries
  • For 7 days
  • Water Temperature
  • Satellite Maps
  • Weather Map
  • News
  • Weather Widgets
  • user-avatar
    Login

    Hourly Weather Gashey

    Today, 20 February, Tuesday

    Time Temperature Precipitation Wind Pressure Humidity
    00:00 -23°C° 0 mm 2 mps 699 mmHg 93%
    01:00 -23°C° 0 mm 2 mps 698 mmHg 94%
    02:00 -24°C° 0 mm 2 mps 698 mmHg 94%
    03:00 -24°C° 0 mm 2 mps 698 mmHg 94%
    04:00 -24°C° 0 mm 2 mps 698 mmHg 94%
    05:00 -25°C° 0 mm 2 mps 698 mmHg 94%
    06:00 -25°C° 0 mm 2 mps 698 mmHg 94%
    07:00 -24°C° 0 mm 2 mps 698 mmHg 94%
    08:00 -21°C° 0 mm 2 mps 698 mmHg 92%
    09:00 -19°C° 0 mm 2 mps 698 mmHg 89%
    10:00 -17°C° 0 mm 2 mps 698 mmHg 86%
    11:00 -16°C° 0 mm 2 mps 698 mmHg 84%
    12:00 -15°C° 0 mm 3 mps 698 mmHg 82%
    13:00 -14°C° 0 mm 3 mps 697 mmHg 80%
    14:00 -15°C° 0 mm 3 mps 697 mmHg 81%
    15:00 -15°C° 0 mm 3 mps 697 mmHg 82%
    16:00 -15°C° 0 mm 3 mps 697 mmHg 83%
    17:00 -16°C° 0 mm 3 mps 697 mmHg 86%
    18:00 -18°C° 0 mm 3 mps 696 mmHg 88%
    19:00 -19°C° 0 mm 2 mps 696 mmHg 91%
    20:00 -19°C° 0 mm 2 mps 696 mmHg 91%
    21:00 -19°C° 0 mm 2 mps 696 mmHg 90%
    22:00 -20°C° 0 mm 2 mps 695 mmHg 90%
    23:00 -20°C° 0 mm 2 mps 695 mmHg 90%

    Tomorrow, 21 February, Wednesday

    Time Temperature Precipitation Wind Pressure Humidity
    00:00 -20°C° 0 mm 2 mps 695 mmHg 90%
    01:00 -20°C° 0 mm 2 mps 694 mmHg 90%
    02:00 -20°C° 0 mm 2 mps 694 mmHg 90%
    03:00 -21°C° 0 mm 2 mps 693 mmHg 90%
    04:00 -21°C° 0 mm 2 mps 693 mmHg 90%
    05:00 -21°C° 0 mm 2 mps 693 mmHg 90%
    06:00 -21°C° 0 mm 2 mps 693 mmHg 90%
    07:00 -21°C° 0 mm 2 mps 693 mmHg 91%
    08:00 -21°C° 0 mm 3 mps 693 mmHg 88%
    09:00 -19°C° 0 mm 3 mps 693 mmHg 86%
    10:00 -17°C° 0 mm 3 mps 693 mmHg 84%
    11:00 -16°C° 0.1 mm 3 mps 692 mmHg 82%
    12:00 -15°C° 0.1 mm 3 mps 692 mmHg 81%
    13:00 -13°C° 0.1 mm 3 mps 692 mmHg 80%
    14:00 -13°C° 0.1 mm 3 mps 692 mmHg 81%
    15:00 -13°C° 0.1 mm 3 mps 692 mmHg 82%
    16:00 -13°C° 0.1 mm 3 mps 692 mmHg 83%
    17:00 -14°C° 0.1 mm 3 mps 692 mmHg 85%
    18:00 -15°C° 0.1 mm 3 mps 692 mmHg 87%
    19:00 -15°C° 0.1 mm 2 mps 692 mmHg 88%
    20:00 -15°C° 0 mm 2 mps 691 mmHg 89%
    21:00 -16°C° 0 mm 2 mps 691 mmHg 90%
    22:00 -17°C° 0 mm 2 mps 691 mmHg 90%
    23:00 -17°C° 0 mm 2 mps 691 mmHg 91%

    Day after tomorrow, 22 February, Thursday

    Time Temperature Precipitation Wind Pressure Humidity
    00:00 -15°C° 0 mm 1 mps 691 mmHg 92%
    01:00 -16°C° 0 mm 1 mps 690 mmHg 93%
    02:00 -16°C° 0 mm 1 mps 690 mmHg 94%
    03:00 -17°C° 0 mm 1 mps 690 mmHg 94%
    04:00 -17°C° 0 mm 1 mps 690 mmHg 95%
    05:00 -17°C° 0.1 mm 1 mps 690 mmHg 95%
    06:00 -18°C° 0.1 mm 1 mps 690 mmHg 96%
    07:00 -18°C° 0.1 mm 1 mps 690 mmHg 96%
    08:00 -16°C° 0 mm 1 mps 690 mmHg 93%
    09:00 -15°C° 0 mm 1 mps 690 mmHg 90%
    10:00 -13°C° 0 mm 1 mps 691 mmHg 86%
    11:00 -13°C° 0 mm 1 mps 690 mmHg 83%
    12:00 -14°C° 0 mm 2 mps 690 mmHg 79%
    13:00 -13°C° 0 mm 2 mps 690 mmHg 75%
    14:00 -13°C° 0.1 mm 2 mps 690 mmHg 77%
    15:00 -13°C° 0.1 mm 2 mps 690 mmHg 78%
    16:00 -14°C° 0.1 mm 2 mps 690 mmHg 80%
    17:00 -16°C° 0 mm 2 mps 691 mmHg 82%
    18:00 -16°C° 0 mm 1 mps 691 mmHg 85%
    19:00 -18°C° 0 mm 1 mps 691 mmHg 87%
    20:00 -19°C° 0 mm 1 mps 691 mmHg 88%
    21:00 -20°C° 0 mm 0 mps 692 mmHg 89%
    22:00 -21°C° 0 mm 0 mps 692 mmHg 89%
    23:00 -22°C° 0 mm 0 mps 692 mmHg 89%

    23 February, Friday

    Time Temperature Precipitation Wind Pressure Humidity
    00:00 -22°C° 0 mm 0 mps 692 mmHg 90%
    01:00 -23°C° 0 mm 0 mps 693 mmHg 90%
    02:00 -23°C° 0 mm 1 mps 693 mmHg 90%
    03:00 -23°C° 0 mm 1 mps 693 mmHg 90%
    04:00 -23°C° 0 mm 1 mps 693 mmHg 90%
    05:00 -23°C° 0 mm 1 mps 693 mmHg 89%
    06:00 -23°C° 0 mm 1 mps 693 mmHg 89%
    07:00 -23°C° 0 mm 1 mps 694 mmHg 89%
    08:00 -21°C° 0 mm 1 mps 694 mmHg 86%
    09:00 -18°C° 0 mm 1 mps 694 mmHg 83%
    10:00 -16°C° 0 mm 1 mps 694 mmHg 80%
    11:00 -16°C° 0 mm 2 mps 694 mmHg 78%
    12:00 -14°C° 0 mm 2 mps 694 mmHg 77%
    13:00 -13°C° 0 mm 2 mps 694 mmHg 76%
    14:00 -13°C° 0 mm 2 mps 694 mmHg 78%
    15:00 -13°C° 0 mm 2 mps 694 mmHg 80%
    16:00 -11°C° 0 mm 1 mps 693 mmHg 82%
    17:00 -13°C° 0 mm 1 mps 694 mmHg 85%
    18:00 -15°C° 0 mm 1 mps 694 mmHg 88%
    19:00 -17°C° 0 mm 0 mps 694 mmHg 91%
    20:00 -17°C° 0 mm 0 mps 694 mmHg 91%
    21:00 -17°C° 0 mm 1 mps 694 mmHg 91%
    22:00 -18°C° 0 mm 1 mps 694 mmHg 91%
    23:00 -17°C° 0 mm 1 mps 695 mmHg 91%

    24 February, Saturday

    Time Temperature Precipitation Wind Pressure Humidity
    00:00 -17°C° 0 mm 1 mps 695 mmHg 91%
    01:00 -16°C° 0 mm 1 mps 695 mmHg 92%
    02:00 -16°C° 0.1 mm 1 mps 694 mmHg 92%
    03:00 -16°C° 0.1 mm 1 mps 694 mmHg 92%
    04:00 -16°C° 0.1 mm 1 mps 694 mmHg 92%
    05:00 -16°C° 0 mm 1 mps 694 mmHg 93%
    06:00 -17°C° 0 mm 1 mps 694 mmHg 93%
    07:00 -17°C° 0 mm 1 mps 694 mmHg 93%
    08:00 -15°C° 0 mm 1 mps 694 mmHg 90%
    09:00 -14°C° 0 mm 1 mps 694 mmHg 87%
    10:00 -12°C° 0 mm 1 mps 694 mmHg 84%
    11:00 -11°C° 0 mm 1 mps 693 mmHg 83%
    12:00 -9°C° 0 mm 1 mps 693 mmHg 82%
    13:00 -8°C° 0 mm 1 mps 693 mmHg 80%
    14:00 -8°C° 0 mm 1 mps 693 mmHg 82%
    15:00 -8°C° 0 mm 1 mps 692 mmHg 83%
    16:00 -8°C° 0 mm 1 mps 692 mmHg 85%
    17:00 -10°C° 0 mm 1 mps 692 mmHg 87%
    18:00 -12°C° 0 mm 1 mps 692 mmHg 90%
    19:00 -14°C° 0 mm 0 mps 692 mmHg 92%
    20:00 -14°C° 0 mm 1 mps 692 mmHg 92%
    21:00 -15°C° 0 mm 1 mps 692 mmHg 92%
    22:00 -15°C° 0 mm 1 mps 692 mmHg 92%
    23:00 -15°C° 0 mm 1 mps 692 mmHg 92%

    25 February, Sunday

    Time Temperature Precipitation Wind Pressure Humidity
    00:00 -15°C° 0 mm 1 mps 692 mmHg 92%
    01:00 -15°C° 0 mm 1 mps 691 mmHg 93%
    02:00 -16°C° 0 mm 1 mps 691 mmHg 93%
    03:00 -16°C° 0 mm 1 mps 691 mmHg 93%
    04:00 -16°C° 0 mm 1 mps 691 mmHg 93%
    05:00 -16°C° 0 mm 1 mps 691 mmHg 93%
    06:00 -16°C° 0 mm 0 mps 691 mmHg 93%
    07:00 -16°C° 0 mm 0 mps 691 mmHg 93%
    08:00 -14°C° 0 mm 1 mps 691 mmHg 90%
    09:00 -12°C° 0 mm 1 mps 691 mmHg 87%
    10:00 -10°C° 0 mm 1 mps 691 mmHg 84%
    11:00 -9°C° 0 mm 1 mps 691 mmHg 84%
    12:00 -8°C° 0 mm 1 mps 691 mmHg 83%
    13:00 -8°C° 0 mm 2 mps 691 mmHg 82%
    14:00 -8°C° 0.1 mm 2 mps 691 mmHg 83%
    15:00 -9°C° 0.1 mm 3 mps 691 mmHg 84%
    16:00 -10°C° 0.1 mm 4 mps 691 mmHg 85%
    17:00 -11°C° 0.1 mm 4 mps 692 mmHg 86%
    18:00 -12°C° 0.1 mm 4 mps 693 mmHg 87%
    19:00 -14°C° 0.1 mm 4 mps 693 mmHg 88%
    20:00 -15°C° 0 mm 4 mps 694 mmHg 88%
    21:00 -15°C° 0 mm 4 mps 694 mmHg 87%
    22:00 -16°C° 0 mm 4 mps 695 mmHg 87%
    23:00 -16°C° 0 mm 3 mps 695 mmHg 88%
    Show more